User: anonymous   Login
Location: Saint Peter Port
(49.4500°N, 2.5330°W)
Time: 12:25:47
(UTC+00:00)
Language:

Cosmos 2242 Rocket - Orbit

View from above orbital plane
View from above orbital plane
View from above satellite
View from above satellite

Ground track
Ground track

The orbit data is extracted from the following two-line orbital elements,

1 22627U 93024B   15058.36432104  .00000401  00000-0  52387-4 0  9993
2 22627 082.5250 160.8236 0023303 196.0360 200.3293 14.77827132177955
Epoch (UTC): 27 February 2015 08:44:37
Eccentricity: 0.0023303
inclination: 82.5250°
perigee height: 620 km
apogee height: 652 km
right ascension of ascending node: 160.8236°
argument of perigee: 196.0360°
revolutions per day: 14.77827132
mean anomaly at epoch: 200.3293°
orbit number at epoch: 17795

The dashed part of the orbit path shows where the satellite is in the earth's shadow,  

DLR